Regional Weather Roundup
Issued by NWS

Home | Current Version | Previous Version | Graphics & Text | Print | Product List | Glossary On
Versions: 1 2 3 4 5 6 7 8 9 10 11 12 13 14 15 16 17 18 19 20 21 22 23 24 25 26 27 28 29 30 31 32 33 34 35 36 37 38 39 40 41 42 43 44 45 46 47 48 49 50
000
ASUS43 KLOT 042021
RWRIL

ILLINOIS REGIONAL WEATHER ROUNDUP
NATIONAL WEATHER SERVICE CHICAGO/ROMEOVILLE IL
300 PM CDT SAT JUL 04 2015

NOTE: "FAIR" INDICATES FEW OR NO CLOUDS BELOW 12,000 FEET WITH NO
SIGNIFICANT WEATHER AND/OR OBSTRUCTIONS TO VISIBILITY.

* THESE STATIONS ARE NOT UNDER NWS QUALITY CONTROL. THEY ALSO MAY NOT
  REPORT WEATHER SUCH AS PRECIPITATION OR FOG.

ILZ001-002-007-009-015-016-024-042100-
NORTHWEST ILLINOIS

CITY           SKY/WX    TMP DP  RH WIND       PRES   REMARKS
MOLINE         SUNNY     80  60  50 MISG      30.00F HX  81
STERLING*      SUNNY     82  63  51 W6        30.01S HX  83
SAVANNA*       SUNNY     81  59  47 SW8       30.00S HX  81
$$

ILZ003-004-008-010-011-017-018-042100-
NORTH CENTRAL ILLINOIS

CITY           SKY/WX    TMP DP  RH WIND       PRES   REMARKS
ROCKFORD       PTSUNNY   80  60  50 W7        30.01F HX  81
FREEPORT*      SUNNY     79  62  56 W5        30.02F HX  80
ROCHELLE*      SUNNY     78  60  52 W5        30.02S
DE KALB*       MOSUNNY   76  58  53 NW5       30.02F
PERU*          SUNNY     78  58  50 W5        30.02S
$$

ILZ005-006-012>014-019>023-042100-
NORTHEAST ILLINOIS

CITY           SKY/WX    TMP DP  RH WIND       PRES   REMARKS
CHICAGO-OHARE  MOSUNNY   79  55  43 VRB5      29.99F
CHICAGO-MIDWAY MOSUNNY   82  57  42 SW8       29.99S HX  82
AURORA         SUNNY     80  57  45 SW3       30.02S HX  80
LANSING*       PTSUNNY   80  55  41 W6        30.00F HX  80
JOLIET*        MOSUNNY   80  61  50 S5        30.01S HX  81
WAUKEGAN       SUNNY     75  58  55 SE10      30.00S
DUPAGE AIRPORT SUNNY     79  54  41 VRB5      30.00S
KANKAKEE*      PTSUNNY   81  61  50 W3        30.02S HX  82
WHEELING       SUNNY     81  54  39 S3        30.01S HX  81
MORRIS*        SUNNY     79  57  45 SW7       30.00S HX  80
ROMEOVILLE*    MOSUNNY   79  56  45 W5        30.01S HX  80
NORTHERLY ISL    N/A     70  58  65 E3          N/A
$$

LMZ740>746-042100-
SOUTHERN LAKE MICHIGAN

STATION/POSITION SKY/WX   TEMP    WIND        PRES    VSBY  WAVE
                          AIR SEA DIR/SP/G                  HT/PER
                          (F)     (DEG/KT/KT) (MB)    (MI)  (FT/S)
HARRISON CRIB              67      90/  9/ 10   N/A
BURNHAM HARBOR             71      40/  3/  4   N/A
CALUMET HARBOR             71      50/  7/  9   N/A
BURNS HARBOR               71      50/  7/  8 1016.9S
MICHIGAN CITY              67      20/  6/  7   N/A
MICHIGAN CITY 6N           68 67   70/  4/  6   N/A           1
ST. JOSEPH                 66 66                N/A           0
$$

ILZ025>027-034>036-040-047-049-050-058-095>099-042100-
WEST-CENTRAL ILLINOIS

CITY           SKY/WX    TMP DP  RH WIND       PRES   REMARKS
QUINCY         SUNNY     81  57  43 SW5       30.01F HX  81
GALESBURG*     MOSUNNY   78  62  57 SW3       30.02S
MACOMB*        PTSUNNY   79  60  52 CALM      30.04S HX  80
JACKSONVILLE*  PTSUNNY   81  64  57 CALM      30.01F HX  82
PITTSFIELD*    SUNNY     82  62  51 CALM      30.02S HX  83
$$

ILZ028>032-037-038-041>044-048-051>054-059>061-042100-
CENTRAL ILLINOIS

CITY           SKY/WX    TMP DP  RH WIND       PRES   REMARKS
PONTIAC        MOSUNNY   80  63  56 W7        30.02S HX  81
BLOOMINGTON    MOSUNNY   80  62  54 SW7       30.04S HX  81
DECATUR        MOSUNNY   79  59  50 SE5       30.02F HX  80
PEORIA         SUNNY     81  58  45 CALM      30.01F HX  81
LACON*         SUNNY     79  59  50 SW7       30.01S HX  80
LINCOLN*       MOSUNNY   81  58  45 W5        30.01F HX  81
SPRINGFIELD    MOSUNNY   82  62  50 CALM      30.01F HX  83
TAYLORVILLE    SUNNY     79  61  53 CALM      30.02S HX  80
$$

ILZ033-039-045-046-055>057-062-063-042100-
EAST-CENTRAL ILLINOIS

CITY           SKY/WX    TMP DP  RH WIND       PRES   REMARKS
CHAMPAIGN      SUNNY     79  59  50 VRB3      30.02F HX  80
DANVILLE*      MOSUNNY   78  61  56 CALM      30.00S
RANTOUL*       PTSUNNY   80  62  53 SW3       30.02S HX  82
MATTOON        MOSUNNY   78  62  57 E3        30.01F HX  80
PARIS*         MOSUNNY   80  61  53 NW3       30.02F HX  81
$$

ILZ079-100>102-042100-
SOUTHWEST ILLINOIS

CITY           SKY/WX    TMP DP  RH WIND       PRES   REMARKS
BELLEVILLE     MOSUNNY   81  63  54 E6        29.98F HX  82
CAHOKIA*       SUNNY     83  59  44 CALM      29.99F HX  83
SPARTA*        MOSUNNY   80  63  55 N5        30.00F HX  82
$$

ILZ064>066-069>071-074>076-080>082-084>086-088>090-092>094-042100-
SOUTH-CENTRAL ILLINOIS

CITY           SKY/WX    TMP DP  RH WIND       PRES   REMARKS
CARBONDALE     PTSUNNY   82  63  52 E5        29.98F HX  83
CAIRO*         CLOUDY    80  67  63 NE5       29.99S HX  82
EFFINGHAM*     MOSUNNY   80  56  44 CALM      30.02F HX  80
MARION         PTSUNNY   82  64  54 N7        30.00F HX  84
MT. VERNON     PTSUNNY   81  63  54 NE5       30.00F HX  82
CENTRALIA*     SUNNY     80  60  51 E3        30.00F HX  81
SALEM*         SUNNY     82  61  49 CALM      30.00F HX  82
$$

ILZ067-068-072-073-078-083-087-091-042100-
SOUTHEAST ILLINOIS

CITY           SKY/WX    TMP DP  RH WIND       PRES   REMARKS
LAWRENCEVILLE  PTSUNNY   81  65  58 CALM      30.00F HX  83
FLORA*         MOSUNNY   79  64  58 CALM      30.01S HX  81
FAIRFIELD*     MOSUNNY   79  64  59 CALM      29.99F HX  81
HARRISBURG*    PTSUNNY   80  64  56 CALM      30.00F HX  82
ROBINSON*      MOSUNNY   80  62  54 NW5       30.02S HX  81
CARMI*         PTSUNNY   81  62  52 NE6       29.99F HX  82
$$

ABBREVIATIONS USED IN REMARKS
   TC - TEMPERATURE IN CELSIUS
  WCI - WIND CHILL INDEX
   HX - HEAT INDEX
  VSB - VISIBILITY
$$




USA.gov is the U.S. government's official web portal to all federal, state and local government web resources and services.